When you browse on this site, cookies collect data to enhance your experience and personalize the content and advertising you see.
Visit our Privacy Policy to learn more. By continuing to use the site, you agree to this use of cookies and data.
  • En España
  • Lista de países
  • Para 7 días
  • Temperatura del agua
  • El tiempo en el mapa
  • Informadores
  • user-avatar
    Iniciar sesión

    Tiempo cada hora Machalí

    Hoy, 28 Marzo, Sábado

    Tiempo Temperatura Precipitaciones Viento Presión Humedad
    00:00 +14°C° 0 mm 0 mps 710 mmHg 73%
    01:00 +14°C° 0 mm 0 mps 710 mmHg 71%
    02:00 +13°C° 0 mm 0 mps 710 mmHg 73%
    03:00 +13°C° 0 mm 0 mps 710 mmHg 74%
    04:00 +12°C° 0 mm 0 mps 709 mmHg 75%
    05:00 +14°C° 0 mm 0 mps 710 mmHg 71%
    06:00 +16°C° 0 mm 0 mps 711 mmHg 66%
    07:00 +18°C° 0 mm 0 mps 712 mmHg 60%
    08:00 +22°C° 0 mm 1 mps 712 mmHg 54%
    09:00 +24°C° 0 mm 2 mps 712 mmHg 48%
    10:00 +26°C° 0 mm 2 mps 712 mmHg 42%
    11:00 +27°C° 0 mm 3 mps 712 mmHg 40%
    12:00 +28°C° 0 mm 3 mps 712 mmHg 37%
    13:00 +29°C° 0 mm 3 mps 712 mmHg 34%
    14:00 +29°C° 0 mm 3 mps 712 mmHg 35%
    15:00 +29°C° 0 mm 3 mps 712 mmHg 36%
    16:00 +28°C° 0 mm 3 mps 712 mmHg 37%
    17:00 +25°C° 0 mm 2 mps 712 mmHg 49%
    18:00 +21°C° 0 mm 2 mps 712 mmHg 60%
    19:00 +19°C° 0 mm 1 mps 712 mmHg 71%
    20:00 +18°C° 0 mm 1 mps 712 mmHg 73%
    21:00 +18°C° 0 mm 1 mps 712 mmHg 74%
    22:00 +16°C° 0 mm 1 mps 712 mmHg 76%
    23:00 +15°C° 0 mm 0 mps 712 mmHg 76%

    Mañana, 29 Marzo, Domingo

    Tiempo Temperatura Precipitaciones Viento Presión Humedad
    00:00 +14°C° 0 mm 0 mps 712 mmHg 76%
    01:00 +14°C° 0 mm 0 mps 712 mmHg 76%
    02:00 +14°C° 0 mm 0 mps 712 mmHg 76%
    03:00 +14°C° 0 mm 0 mps 712 mmHg 76%
    04:00 +14°C° 0 mm 0 mps 712 mmHg 76%
    05:00 +15°C° 0 mm 0 mps 713 mmHg 70%
    06:00 +16°C° 0 mm 0 mps 713 mmHg 64%
    07:00 +18°C° 0 mm 0 mps 714 mmHg 58%
    08:00 +22°C° 0 mm 1 mps 714 mmHg 50%
    09:00 +25°C° 0 mm 2 mps 714 mmHg 42%
    10:00 +27°C° 0 mm 3 mps 714 mmHg 35%
    11:00 +28°C° 0 mm 3 mps 714 mmHg 32%
    12:00 +30°C° 0 mm 3 mps 714 mmHg 30%
    13:00 +31°C° 0 mm 3 mps 714 mmHg 27%
    14:00 +31°C° 0 mm 3 mps 714 mmHg 28%
    15:00 +30°C° 0 mm 3 mps 714 mmHg 28%
    16:00 +30°C° 0 mm 3 mps 713 mmHg 28%
    17:00 +27°C° 0 mm 2 mps 713 mmHg 36%
    18:00 +23°C° 0 mm 1 mps 713 mmHg 44%
    19:00 +20°C° 0 mm 1 mps 713 mmHg 52%
    20:00 +19°C° 0 mm 1 mps 713 mmHg 53%
    21:00 +19°C° 0 mm 1 mps 713 mmHg 54%
    22:00 +18°C° 0 mm 1 mps 713 mmHg 54%
    23:00 +18°C° 0 mm 1 mps 712 mmHg 54%

    Pasado mañana, 30 Marzo, Lunes

    Tiempo Temperatura Precipitaciones Viento Presión Humedad
    00:00 +16°C° 0 mm 1 mps 712 mmHg 53%
    01:00 +15°C° 0 mm 0 mps 712 mmHg 52%
    02:00 +16°C° 0 mm 1 mps 712 mmHg 53%
    03:00 +15°C° 0 mm 1 mps 712 mmHg 54%
    04:00 +15°C° 0 mm 1 mps 712 mmHg 54%
    05:00 +18°C° 0 mm 1 mps 712 mmHg 50%
    06:00 +19°C° 0 mm 1 mps 713 mmHg 45%
    07:00 +21°C° 0 mm 1 mps 713 mmHg 40%
    08:00 +23°C° 0 mm 1 mps 713 mmHg 35%
    09:00 +26°C° 0 mm 2 mps 713 mmHg 30%
    10:00 +28°C° 0 mm 3 mps 713 mmHg 25%
    11:00 +29°C° 0 mm 3 mps 713 mmHg 24%
    12:00 +31°C° 0 mm 3 mps 713 mmHg 22%
    13:00 +33°C° 0 mm 3 mps 713 mmHg 20%
    14:00 +33°C° 0 mm 3 mps 713 mmHg 21%
    15:00 +31°C° 0 mm 3 mps 712 mmHg 21%
    16:00 +31°C° 0 mm 3 mps 712 mmHg 21%
    17:00 +28°C° 0 mm 2 mps 712 mmHg 28%
    18:00 +24°C° 0 mm 2 mps 712 mmHg 34%
    19:00 +21°C° 0 mm 1 mps 712 mmHg 40%
    20:00 +20°C° 0 mm 1 mps 712 mmHg 39%
    21:00 +19°C° 0 mm 1 mps 712 mmHg 39%
    22:00 +19°C° 0 mm 1 mps 712 mmHg 39%
    23:00 +18°C° 0 mm 1 mps 711 mmHg 38%

    31 Marzo, Martes

    Tiempo Temperatura Precipitaciones Viento Presión Humedad
    00:00 +18°C° 0 mm 1 mps 711 mmHg 38%
    01:00 +16°C° 0 mm 0 mps 711 mmHg 38%
    02:00 +15°C° 0 mm 0 mps 711 mmHg 39%
    03:00 +15°C° 0 mm 0 mps 710 mmHg 40%
    04:00 +14°C° 0 mm 0 mps 710 mmHg 41%
    05:00 +16°C° 0 mm 0 mps 711 mmHg 38%
    06:00 +18°C° 0 mm 0 mps 711 mmHg 34%
    07:00 +19°C° 0 mm 0 mps 712 mmHg 31%
    08:00 +23°C° 0 mm 1 mps 712 mmHg 27%
    09:00 +26°C° 0 mm 2 mps 712 mmHg 24%
    10:00 +28°C° 0 mm 2 mps 712 mmHg 20%
    11:00 +29°C° 0 mm 3 mps 712 mmHg 19%
    12:00 +30°C° 0 mm 3 mps 712 mmHg 18%
    13:00 +31°C° 0 mm 3 mps 712 mmHg 17%
    14:00 +31°C° 0 mm 3 mps 712 mmHg 17%
    15:00 +30°C° 0 mm 3 mps 712 mmHg 17%
    16:00 +30°C° 0 mm 3 mps 712 mmHg 17%
    17:00 +26°C° 0 mm 2 mps 712 mmHg 24%
    18:00 +23°C° 0 mm 1 mps 712 mmHg 30%
    19:00 +19°C° 0 mm 1 mps 712 mmHg 37%
    20:00 +18°C° 0 mm 1 mps 711 mmHg 39%
    21:00 +16°C° 0 mm 1 mps 711 mmHg 41%
    22:00 +15°C° 0 mm 0 mps 711 mmHg 43%
    23:00 +15°C° 0 mm 1 mps 711 mmHg 45%

    1 Abril, Miércoles

    Tiempo Temperatura Precipitaciones Viento Presión Humedad
    00:00 +15°C° 0 mm 1 mps 711 mmHg 46%
    01:00 +14°C° 0 mm 1 mps 711 mmHg 48%
    02:00 +14°C° 0 mm 1 mps 711 mmHg 50%
    03:00 +13°C° 0 mm 1 mps 711 mmHg 52%
    04:00 +13°C° 0 mm 1 mps 711 mmHg 55%
    05:00 +14°C° 0 mm 1 mps 711 mmHg 51%
    06:00 +15°C° 0 mm 1 mps 712 mmHg 47%
    07:00 +18°C° 0 mm 1 mps 713 mmHg 44%
    08:00 +19°C° 0 mm 2 mps 713 mmHg 37%
    09:00 +23°C° 0 mm 2 mps 713 mmHg 31%
    10:00 +25°C° 0 mm 3 mps 713 mmHg 25%
    11:00 +26°C° 0 mm 3 mps 713 mmHg 22%
    12:00 +28°C° 0 mm 3 mps 714 mmHg 19%
    13:00 +29°C° 0 mm 4 mps 714 mmHg 16%
    14:00 +28°C° 0 mm 3 mps 714 mmHg 16%
    15:00 +28°C° 0 mm 3 mps 714 mmHg 16%
    16:00 +28°C° 0 mm 3 mps 714 mmHg 16%
    17:00 +24°C° 0 mm 2 mps 714 mmHg 21%
    18:00 +20°C° 0 mm 2 mps 714 mmHg 26%
    19:00 +18°C° 0 mm 1 mps 714 mmHg 31%
    20:00 +16°C° 0 mm 1 mps 714 mmHg 30%
    21:00 +16°C° 0 mm 1 mps 714 mmHg 29%
    22:00 +16°C° 0 mm 1 mps 714 mmHg 27%
    23:00 +15°C° 0 mm 1 mps 714 mmHg 27%

    2 Abril, Jueves

    Tiempo Temperatura Precipitaciones Viento Presión Humedad
    00:00 +15°C° 0 mm 2 mps 714 mmHg 26%
    01:00 +15°C° 0 mm 2 mps 714 mmHg 26%
    02:00 +15°C° 0 mm 2 mps 714 mmHg 25%
    03:00 +15°C° 0 mm 2 mps 714 mmHg 24%
    04:00 +15°C° 0 mm 2 mps 714 mmHg 24%
    05:00 +17°C° 0 mm 2 mps 714 mmHg 20%
    06:00 +19°C° 0 mm 1 mps 714 mmHg 16%
    07:00 +21°C° 0 mm 1 mps 714 mmHg 13%
    08:00 +25°C° 0 mm 2 mps 714 mmHg 10%
    09:00 +28°C° 0 mm 2 mps 714 mmHg 8%
    10:00 +31°C° 0 mm 2 mps 715 mmHg 5%
    11:00 +34°C° 0 mm 2 mps 714 mmHg 5%
    12:00 +35°C° 0 mm 2 mps 714 mmHg 5%
    13:00 +36°C° 0 mm 3 mps 714 mmHg 4%
    14:00 +36°C° 0 mm 3 mps 714 mmHg 5%
    15:00 +35°C° 0 mm 3 mps 713 mmHg 5%
    16:00 +35°C° 0 mm 3 mps 713 mmHg 5%
    17:00 +30°C° 0 mm 2 mps 713 mmHg 10%
    18:00 +25°C° 0 mm 1 mps 713 mmHg 14%
    19:00 +21°C° 0 mm 1 mps 713 mmHg 18%
    20:00 +21°C° 0 mm 1 mps 713 mmHg 19%
    21:00 +20°C° 0 mm 1 mps 712 mmHg 20%
    22:00 +17°C° 0 mm 0 mps 712 mmHg 21%
    23:00 +19°C° 0 mm 1 mps 712 mmHg 22%
    Mostrar más